This is the latest recevied weather packets stored in our database for station/object R2AKT-13. If no packets are shown the sender has not sent any weather packets the latest 10 day(s).
| Time | Temp. | Humidity | Pressure | Rain* | Wind** | Luminosity | Snow |
|---|---|---|---|---|---|---|---|
| 1788285446 | 20° C | 65% | 988.7 hPa | - | 3.58 m/s, 167° | - | - |
| 1788284906 | 20° C | 64% | 988.8 hPa | - | 1.79 m/s, 162° | - | - |
| 1788284386 | 20° C | 64% | 988.9 hPa | - | 2.68 m/s, 185° | - | - |
| 1788283806 | 20° C | 62% | 988.9 hPa | - | 1.34 m/s, 168° | - | - |
| 1788283311 | 20.56° C | 62% | 988.9 hPa | - | 1.34 m/s, 170° | - | - |
| 1788282806 | 20.56° C | 61% | 988.8 hPa | - | 2.68 m/s, 160° | - | - |
| 1788282211 | 20.56° C | 60% | 988.8 hPa | - | 0.89 m/s, 184° | - | - |
| 1788281722 | 21.11° C | 59% | 988.9 hPa | - | 2.24 m/s, 169° | - | - |
| 1788281186 | 21.11° C | 58% | 988.9 hPa | - | 1.79 m/s, 153° | - | - |
| 1788280606 | 21.11° C | 58% | 988.9 hPa | - | 1.79 m/s, 162° | - | - |
| 1788280026 | 21.11° C | 57% | 988.9 hPa | - | 1.79 m/s, 166° | - | - |
| 1788279481 | 21.67° C | 56% | 989 hPa | - | 2.24 m/s, 157° | - | - |
| 1788278976 | 21.67° C | 55% | 989.1 hPa | - | 2.24 m/s, 157° | - | - |
| 1788278376 | 21.67° C | 55% | 989.1 hPa | - | 2.24 m/s, 163° | - | - |
| 1788277796 | 21.67° C | 55% | 989.1 hPa | - | 0.89 m/s, 209° | - | - |
| 1788277311 | 22.22° C | 54% | 989.3 hPa | - | 1.34 m/s, 159° | - | - |
| 1788276801 | 22.22° C | 54% | 989.2 hPa | - | 1.79 m/s, 160° | - | - |
| 1788276241 | 22.22° C | 53% | 989.2 hPa | - | 2.68 m/s, 175° | - | - |
| 1788275661 | 22.22° C | 53% | 989.6 hPa | - | 2.68 m/s, 169° | - | - |
| 1788275098 | 22.78° C | 52% | 989.6 hPa | - | 4.02 m/s, 173° | - | - |
| 1788274526 | 22.78° C | 52% | 989.7 hPa | - | 3.13 m/s, 178° | - | - |
| 1788273976 | 23.33° C | 51% | 989.7 hPa | - | 4.92 m/s, 176° | - | - |
| 1788273446 | 23.33° C | 50% | 989.7 hPa | - | 4.02 m/s, 170° | - | - |
| 1788272876 | 23.33° C | 49% | 989.8 hPa | - | 4.47 m/s, 173° | - | - |
| 1788272306 | 23.89° C | 48% | 989.7 hPa | - | 3.13 m/s, 165° | - | - |
* Rain since midnight (hover to see other rain measurements)
** Current wind speed in m/s (hover to see current wind gust speed)